Starlink 5464

operational
NORAD ID: 54758 Int'l Des: 2022-175 Owner: SPXS Country: US Constellation: starlink
LEOCIRCULAR

About Starlink 5464

Description loading...

Live Position

Loading 3D Globe...

Upcoming Passes

Altitude History

Altitude vs Time

uPlot chart will show altitude changes over time

Two-Line Element Set

1 54758U 22175A 26035.41803739 .00000306 00000-0 37319-4 0 9993
2 54758 53.2188 188.6757 0000889 86.1767 273.9327 15.08835819174968
Epoch: Feb 4, 2026 • Age: 14 hours

Current Status

Altitude 551.2 km
Velocity 7.59 km/s
Sub-Earth Point -34.66°S, 94.26°W
Launch Date Dec 17, 2022
Age 3.1 years
Type internet

Technical Details

Classification Payload
Mass 305.00 kg
Dry Mass 290.00 kg
Total Mass 305.00 kg
Length 0.20 m
Diameter 2.80 m
Span 9.00 m
Shape Box + pan
Manufacturer SPXS
Bus Type Starlink
Phase Status In Orbit
Owner/State SPXS/US

Large Constellations

Loading constellations...